EW8359 Weather Reports


time (UTC)temp
C
wind
direction
speed
KPH
gust
KPH
rain 1hr
cm
rain 24hr
cm
rain mn
cm
humidity
%
barometer
mb
20260506031525 15 247 0.0 0.0 0.00 0.00 0.00 79 1005.6
20260506030024 15 247 0.0 0.0 0.00 0.00 0.00 77 1005.6
20260506024520 16 247 0.0 0.0 0.00 0.00 0.00 75 1005.5
20260506023018 17 247 0.0 0.0 0.00 0.00 0.00 74 1005.7
20260506021518 17 247 0.0 0.0 0.00 0.00 0.00 72 1006.1
20260506020022 17 248 0.0 0.0 0.00 0.00 0.00 71 1005.9
20260506014519 18 256 0.0 0.0 0.00 0.00 0.00 70 1006.0
20260506013025 18 184 0.0 0.0 0.00 0.00 0.00 69 1005.8
20260506011517 18 181 0.0 0.0 0.00 0.00 0.00 67 1006.1
20260506010024 19 209 0.0 0.0 0.00 0.00 0.00 66 1006.0
20260506004523 19 229 0.0 0.0 0.00 0.00 0.00 64 1005.7
20260506003014 19 167 0.0 0.0 0.00 0.00 0.00 62 1005.3
20260506001515 19 146 0.0 0.0 0.00 0.00 0.00 63 1005.1
20260506000019 19 259 0.0 0.0 0.00 0.00 0.00 64 1004.9
20260505234517 20 259 0.0 0.0 0.00 0.00 0.00 61 1004.3
20260505233013 20 260 0.0 0.0 0.00 0.00 0.00 60 1003.8
20260505231513 20 9 0.0 3.2 0.00 0.00 0.00 58 1003.4
20260505230015 21 259 0.0 24.1 0.00 0.00 0.00 56 1003.7
20260505224512 22 281 4.8 20.9 0.00 0.00 0.00 52 1003.6
20260505223031 22 262 0.0 9.7 0.00 0.00 0.00 45 1002.6
20260505221521 23 185 1.6 12.9 0.00 0.00 0.00 45 1001.5
20260505220033 23 139 0.0 16.1 0.00 0.00 0.00 44 1001.4
20260505214536 23 179 3.2 22.5 0.00 0.00 0.00 43 1001.2
20260505213033 24 148 8.0 32.2 0.00 0.00 0.00 43 1001.1
20260505211519 25 122 1.6 22.5 0.00 0.00 0.00 40 1000.8
20260505210019 26 65 6.4 33.8 0.00 0.00 0.00 40 1000.9
20260505204527 25 144 6.4 20.9 0.00 0.00 0.00 42 1000.8
20260505203021 26 38 1.6 22.5 0.00 0.00 0.00 39 1000.8
20260505201518 26 109 3.2 25.7 0.00 0.00 0.00 39 1001.0
20260505200018 26 140 1.6 17.7 0.00 0.00 0.00 41 1000.9
20260505194515 26 156 0.0 24.1 0.00 0.00 0.00 41 1001.1
20260505193034 26 117 3.2 20.9 0.00 0.00 0.00 39 1001.3
20260505191511 26 215 3.2 16.1 0.00 0.00 0.00 38 1001.7
20260505190023 26 186 3.2 17.7 0.00 0.00 0.00 39 1001.8
20260505184509 26 182 3.2 37.0 0.00 0.00 0.00 35 1002.1
20260505183015 26 247 3.2 17.7 0.00 0.00 0.00 37 1002.1
20260505181512 27 190 8.0 29.0 0.00 0.00 0.00 34 1002.4
20260505180003 27 274 3.2 19.3 0.00 0.00 0.00 34 1002.5
20260505174600 27 117 4.8 22.5 0.00 0.00 0.00 36 1002.8
20260505173158 27 196 1.6 14.5 0.00 0.00 0.00 37 1003.0
20260505171553 26 247 4.8 25.7 0.00 0.00 0.00 36 1003.3
20260505170058 26 246 6.4 22.5 0.00 0.00 0.00 38 1003.5
20260505164548 26 136 4.8 17.7 0.00 0.00 0.00 37 1003.7
20260505163043 25 281 0.0 20.9 0.00 0.00 0.00 41 1004.3
20260505161540 25 117 1.6 19.3 0.00 0.00 0.00 40 1004.5
20260505153032 23 139 1.6 12.9 0.00 0.00 0.00 46 1005.4
20260505151526 22 207 0.0 9.7 0.00 0.00 0.00 46 1005.5
20260505124607 16 163 0.0 9.7 0.00 0.00 0.00 58 1006.4
20260505123112 16 222 0.0 12.9 0.00 0.00 0.00 57 1006.2
20260505121555 16 134 0.0 12.9 0.00 0.00 0.00 58 1005.8
20260505120054 15 211 0.0 12.9 0.00 0.00 0.00 61 1005.9
20260505114556 14 203 0.0 4.8 0.00 0.00 0.00 63 1006.1
20260505113051 12 143 0.0 12.9 0.00 0.00 0.00 68 1006.1
20260505111546 11 209 0.0 8.0 0.00 0.00 0.00 74 1006.1
20260505101545 7 133 0.0 0.0 0.00 0.00 0.00 82 1006.2
20260505100041 7 133 0.0 0.0 0.00 0.00 0.00 82 1006.2
20260505094539 8 133 0.0 0.0 0.00 0.00 0.00 81 1006.3
20260505093044 8 133 0.0 0.0 0.00 0.00 0.00 81 1006.3
20260505091543 7 129 0.0 0.0 0.00 0.00 0.00 81 1006.2
20260505090047 7 129 0.0 0.0 0.00 0.00 0.00 81 1006.2
20260505084532 8 129 0.0 0.0 0.00 0.00 0.00 79 1006.3
20260505083029 8 129 0.0 0.0 0.00 0.00 0.00 77 1006.4
20260505081535 9 129 0.0 0.0 0.00 0.00 0.00 76 1006.4
20260505080043 9 129 0.0 0.0 0.00 0.00 0.00 74 1006.5
20260505074520 10 129 0.0 0.0 0.00 0.00 0.00 73 1006.5
20260505073019 10 129 0.0 0.0 0.00 0.00 0.00 72 1006.6
20260505071515 10 129 0.0 0.0 0.00 0.00 0.00 71 1006.6
20260505070018 11 128 0.0 0.0 0.00 0.00 0.00 68 1006.5
20260505064508 12 129 0.0 1.6 0.00 0.00 0.00 63 1006.5
20260505063006 13 128 0.0 9.7 0.00 0.00 0.00 59 1006.5
20260505061505 13 203 0.0 8.0 0.00 0.00 0.00 59 1006.5
20260505054600 13 217 0.0 4.8 0.00 0.00 0.00 58 1006.5
20260505053103 13 175 0.0 3.2 0.00 0.00 0.00 58 1006.4
20260505051555 13 182 0.0 16.1 0.00 0.00 0.00 57 1006.6
20260505050124 13 99 0.0 1.6 0.00 0.00 0.00 57 1006.7
20260505041601 14 290 0.0 8.0 0.00 0.00 0.00 55 1006.4
20260505040054 14 255 0.0 11.3 0.00 0.00 0.00 55 1006.3
20260505034544 15 144 0.0 11.3 0.00 0.00 0.00 54 1006.1
20260505033047 15 142 0.0 6.4 0.00 0.00 0.00 53 1006.1